This demonstration page uses our WeatherBlox Daily Observations layout. Learn more.

Left ArrowRight Arrow

40.92945, -100.16068

Hourly Observations for April 3, 2021

Temp ( °F °C ) Dew Point ( °F °C ) Humidity (%) Winds ( mph kmh ) Pressure ( in mb ) Visibility ( mi km ) Precip ( " mm )
12:15 am 00:15 Clear 54 12.1 32 0.1 44 44 N N/A 30.00 1016 10 16 N/A
12:35 am 00:35 Clear 52 10.9 33 0.3 48 48 SSE 6 9 30.01 1016 10 16 N/A
12:55 am 00:55 Clear 53 11.6 33 0.4 46 46 S 6 9 30.01 1016 10 16 N/A
1:15 am 01:15 Clear 52 10.9 32 0.2 48 48 N N/A 30.02 1017 10 16 N/A
1:35 am 01:35 Clear 44 6.4 32 undefined 64 64 N N/A 30.07 1018 10 16 N/A
1:55 am 01:55 Clear 41 4.9 32 undefined 71 71 N N/A 30.09 1019 10 16 N/A
2:15 am 02:15 Clear 39 4.1 31 -0.6 72 72 N N/A 30.10 1019 10 16 N/A
2:35 am 02:35 Clear 39 3.7 32 -0.1 76 76 N N/A 30.10 1019 10 16 N/A
2:55 am 02:55 Clear 38 3.3 30 -1.1 73 73 N N/A 30.10 1019 10 16 N/A
3:15 am 03:15 Clear 39 3.7 31 -0.8 73 73 N N/A 30.10 1019 10 16 N/A
3:35 am 03:35 Clear 38 3.5 30 -1 73 73 N N/A 30.11 1020 10 16 N/A
3:55 am 03:55 Clear 35 1.8 29 -1.4 80 80 N 7 11 30.13 1020 10 16 N/A
4:15 am 04:15 Clear 34 1.1 29 -1.5 83 83 NNE 6 9 30.14 1021 10 16 N/A
4:35 am 04:35 Clear 35 1.5 29 -1.4 81 81 N N/A 30.13 1020 10 16 N/A
4:55 am 04:55 Clear 33 0.7 29 -1.9 83 83 W 5 7 30.16 1021 10 16 N/A
5:15 am 05:15 Clear 34 1.2 30 -1 85 85 W 5 7 30.16 1021 10 16 N/A
5:35 am 05:35 Clear 32 0.1 28 -2 86 86 WNW 7 11 30.17 1022 10 16 N/A
5:55 am 05:55 Clear 33 0.5 29 -1.4 87 87 NW 7 11 30.17 1022 10 16 N/A
6:15 am 06:15 Clear 32 undefined 28 -2.3 85 85 WNW 5 7 30.18 1022 10 16 N/A
6:35 am 06:35 Clear 32 0.2 28 -2 85 85 W 3 6 30.19 1022 10 16 N/A
6:55 am 06:55 Clear 31 -0.4 29 -1.9 90 90 WNW 6 9 30.20 1023 10 16 N/A
7:15 am 07:15 Clear 32 undefined 29 -1.6 89 89 WNW 6 9 30.21 1023 10 16 N/A
7:35 am 07:35 Sunny 32 -0.1 29 -1.9 88 88 WNW 6 9 30.21 1023 10 16 N/A
7:55 am 07:55 Sunny 33 0.4 30 -1.2 89 89 WNW 6 9 30.21 1023 7 11 N/A
8:15 am 08:15 Sunny 36 2 32 -0.1 86 86 WNW 5 7 30.20 1023 10 16 N/A
8:35 am 08:35 Sunny 40 4.6 34 0.9 77 77 NNW 3 6 30.17 1022 10 16 N/A
8:55 am 08:55 Sunny 47 8.5 33 0.6 58 58 N N/A 30.14 1020 10 16 N/A
9:15 am 09:15 Sunny 51 10.5 36 2.2 57 57 N N/A 30.12 1020 10 16 N/A
9:35 am 09:35 Sunny 59 15.2 34 1.1 39 39 E 9 15 30.07 1018 10 16 N/A
9:55 am 09:55 Sunny 63 17.2 30 -1.3 29 29 E 15 24 30.07 1018 10 16 N/A
10:15 am 10:15 Sunny 65 18.5 29 -1.5 26 26 E 14 22 30.05 1018 10 16 N/A
10:35 am 10:35 Sunny 67 19.5 27 -2.7 22 22 E 15 24 30.06 1018 10 16 N/A
10:55 am 10:55 Sunny 69 20.4 29 -1.6 23 23 E 17 28 30.05 1018 10 16 N/A
11:15 am 11:15 Sunny 70 20.9 30 -1.2 23 23 ESE 15 24 30.04 1017 10 16 N/A
11:35 am 11:35 Sunny 70 21.1 27 -2.6 20 20 ESE 15 24 30.04 1017 10 16 N/A
11:55 am 11:55 Sunny 71 21.7 27 -2.8 19 19 ESE 15 24 30.04 1017 10 16 N/A
12:15 pm 12:15 Sunny 73 22.5 30 -1.3 20 20 E 10 17 30.03 1017 10 16 N/A
12:35 pm 12:35 Sunny 73 22.5 27 -2.7 18 18 E 13 20 30.02 1017 10 16 N/A
12:55 pm 12:55 Sunny 74 23.1 27 -2.9 17 17 ESE 16 26 30.02 1016 10 16 N/A
1:15 pm 13:15 Sunny 74 23.5 27 -2.7 17 17 ESE 14 22 30.01 1016 10 16 N/A
1:35 pm 13:35 Sunny 75 23.8 28 -2.3 18 18 SE 16 26 30.00 1016 10 16 N/A
1:55 pm 13:55 Sunny 76 24.2 29 -1.6 18 18 ESE 16 26 30.00 1016 10 16 N/A
2:15 pm 14:15 Sunny 76 24.7 30 -1.2 18 18 SE 13 20 29.99 1016 10 16 N/A
2:35 pm 14:35 Sunny 77 25 29 -1.5 17 17 SE 15 24 29.98 1015 10 16 N/A
2:55 pm 14:55 Sunny 77 25.1 29 -1.7 17 17 SE 14 22 29.98 1015 10 16 N/A
3:15 pm 15:15 Sunny 77 25.2 30 -1.1 18 18 SE 14 22 29.97 1015 10 16 N/A
3:35 pm 15:35 Sunny 78 25.3 29 -1.5 17 17 SE 15 24 29.96 1014 10 16 N/A
3:55 pm 15:55 Sunny 78 25.5 31 -0.3 18 18 SSE 15 24 29.95 1014 10 16 N/A
4:15 pm 16:15 Sunny 78 25.5 30 -1 17 17 S 14 22 29.95 1014 10 16 N/A
4:35 pm 16:35 Sunny 78 25.4 29 -1.5 17 17 SSE 12 19 29.95 1014 10 16 N/A
4:55 pm 16:55 Sunny 78 25.6 30 -0.9 17 17 SSE 16 26 29.93 1014 10 16 N/A
5:15 pm 17:15 Sunny 78 25.5 29 -1.4 17 17 SE 16 26 29.93 1013 10 16 N/A
5:35 pm 17:35 Sunny 78 25.3 31 -0.4 18 18 SE 16 26 29.93 1013 10 16 N/A
5:55 pm 17:55 Sunny 77 25 31 -0.3 19 19 SSE 18 30 29.92 1013 10 16 N/A
6:15 pm 18:15 Sunny 76 24.7 31 -0.4 19 19 SSE 16 26 29.93 1014 10 16 N/A
6:35 pm 18:35 Sunny 75 24.1 31 -0.7 19 19 S 15 24 29.94 1014 10 16 N/A
6:55 pm 18:55 Sunny 74 23.5 31 -0.7 20 20 SSE 15 24 29.94 1014 10 16 N/A
7:15 pm 19:15 Sunny 73 22.6 32 -0.1 22 22 S 13 20 29.96 1015 10 16 N/A
7:35 pm 19:35 Sunny 71 21.4 32 undefined 24 24 SSE 10 17 29.96 1015 10 16 N/A
7:55 pm 19:55 Sunny 68 20.2 31 -0.3 25 25 SSE 10 17 29.97 1015 10 16 N/A
8:15 pm 20:15 Clear 67 19.4 31 -0.4 27 27 SSE 10 17 29.98 1015 10 16 N/A
8:35 pm 20:35 Clear 65 18.6 32 -0.2 28 28 SSE 10 17 29.98 1015 10 16 N/A
8:55 pm 20:55 Clear 65 18.4 32 0.1 29 29 SE 12 19 29.99 1015 10 16 N/A
9:15 pm 21:15 Clear 65 18.3 36 2.1 34 34 SE 10 17 29.99 1015 10 16 N/A
9:35 pm 21:35 Clear 64 17.6 37 2.9 38 38 SE 10 17 30.00 1016 10 16 N/A
9:55 pm 21:55 Clear 61 15.9 38 3.2 43 43 SE 8 13 30.02 1017 10 16 N/A
10:15 pm 22:15 Clear 60 15.7 38 3.5 44 44 SE 8 13 30.02 1017 10 16 N/A
10:35 pm 22:35 Clear 60 15.5 39 3.7 46 46 SE 8 13 30.02 1017 10 16 N/A
10:55 pm 22:55 Clear 60 15.6 39 4 46 46 SE 9 15 30.01 1016 10 16 N/A
11:15 pm 23:15 Clear 59 15.2 39 4 47 47 SE 8 13 30.01 1016 10 16 N/A
11:35 pm 23:35 Clear 58 14.4 40 4.2 51 51 SE 8 13 30.02 1017 10 16 N/A
11:55 pm 23:55 Clear 56 13.5 40 4.3 54 54 SE 7 11 30.03 1017 10 16 N/A

Powered by AerisWeather